[[{"header":{"parameterUnit":"m.s-1","parameterCategory":1,"la1":30.2991,"la2":30.254,"lo1":-89.0895,"lo2":-89.0444,"dy":0.0017,"dx":0.0017,"nx":28,"ny":28,"refTime":"2023-11-07T03:00:00:Z","depth":0,"parameterNumber":2,"parameterNumberName":"U-component_of_WINDS"},"data":[0,0,0,0,0,0,0,0,0,0,0,0,0,0,0,0,0,0,0,0,0,0,0,0,0,0,0,0,0,0,0,0,0,0,0,0,0,0,0,0,0,0,0,0,0,0,0,0,0,0,0,0,0,0,0,0,0,0,0.1444,0.1445,0,0.1492,0.1492,0.1493,0.1514,0.1514,0.1514,0.1514,0.1559,0.156,0.1562,0,0,0,0,0,0,0,0,0,0,0,0,0,0.1369,0.137,0.1444,0.1445,0.1446,0.1492,0.1492,0.1493,0.1514,0.1514,0.1514,0.1514,0.1559,0.156,0.1562,0,0,0,0,0,0,0,0,0,0,0,0,0,0.1407,0.137,0.1444,0.1462,0.1464,0.1491,0.1492,0.1493,0.1514,0.1514,0.1514,0.1514,0.1558,0.156,0.1562,0.1575,0,0,0.1568,0.1568,0,0,0,0,0,0,0,0,0.1405,0.141,0.1459,0.1461,0.1463,0.1497,0.1482,0.152,0.1514,0.1495,0.1514,0.1514,0.1538,0.1542,0.1551,0.1577,0.1579,0.1568,0.1569,0.157,0.157,0,0,0,0,0,0,0,0.1402,0.1408,0.1463,0.1459,0.1462,0.1466,0.1471,0.1489,0.1516,0.1496,0.1498,0.1504,0.1539,0.1549,0.1552,0.158,0.1568,0.1569,0.1571,0.1571,0.1618,0.1618,0,0,0,0,0,0,0.1397,0.1406,0.1462,0.1464,0.1433,0.1467,0.1473,0.1486,0.1516,0.1521,0.1504,0.1504,0.1546,0.155,0.1554,0.1571,0.157,0.1571,0.1573,0.1618,0.1618,0.1618,0,0,0,0,0,0,0.1395,0.1402,0.146,0.1435,0.1443,0.1469,0.1483,0.1487,0.1497,0.1522,0.1526,0.1509,0.1546,0.1551,0.1569,0.1572,0.1572,0.1574,0.1618,0.1618,0.1618,0.1605,0,0,0,0,0,0,0.1393,0.1401,0.1407,0.1436,0.1444,0.1476,0.1483,0.1488,0.15,0.1502,0.1527,0.1532,0.1546,0.1567,0.1571,0.1575,0.1576,0.1618,0.1618,0.1618,0.1605,0.1604,0.1604,0,0,0,0,0,0.139,0.1401,0.1408,0.1414,0.1453,0.1476,0.1481,0.1498,0.15,0.1506,0.1522,0.1531,0.1571,0.1568,0.1574,0.1578,0.1618,0.1618,0.1618,0.1605,0.1605,0.1604,0,0,0,0,0,0,0.1372,0.1405,0.1413,0.1433,0.1452,0.148,0.1488,0.1497,0.1515,0.1515,0.1535,0.154,0.1557,0.1569,0.1565,0.1592,0.1595,0.1596,0.1583,0.1583,0.1582,0.1579,0.1577,0,0,0,0,0,0.137,0.1388,0.1415,0.1431,0.144,0.1462,0.1473,0.1484,0.1504,0.1511,0.1529,0.1546,0.1563,0.1574,0.159,0.1607,0.1612,0.1612,0.1612,0.1611,0.1612,0.1621,0.1621,0.1619,0.1619,0.1619,0,0,0.1367,0.1387,0.1397,0.1427,0.1443,0.1459,0.1468,0.1485,0.1497,0.1514,0.1533,0.1546,0.1566,0.1584,0.1592,0.1595,0.1614,0.1611,0.1611,0.1612,0.1621,0.1621,0.1621,0.1619,0.1619,0.1619,0,0,0.137,0.1387,0.1402,0.1417,0.1441,0.1456,0.1459,0.1485,0.1495,0.1514,0.1527,0.154,0.1569,0.1583,0.1594,0.1601,0.1609,0.1605,0.1603,0.1611,0.1611,0.1611,0.1613,0.1614,0.1606,0.1606,0.1606,0,0.1362,0.1389,0.1407,0.1424,0.1436,0.1453,0.1467,0.1481,0.1508,0.1516,0.1518,0.1554,0.1569,0.159,0.1591,0.16,0.1603,0.1603,0.161,0.161,0.1611,0.1613,0.1613,0.1606,0.1606,0.1606,0.1606,0,0.1378,0.1396,0.1404,0.1432,0.1445,0.146,0.148,0.1491,0.1501,0.1515,0.1534,0.1552,0.1573,0.1579,0.1588,0.16,0.1601,0.1606,0.161,0.161,0.1612,0.1613,0.1605,0.1605,0.1605,0.1605,0,0,0.1371,0.1408,0.1411,0.1423,0.1451,0.1464,0.1479,0.15,0.1509,0.1527,0.1539,0.1562,0.1567,0.158,0.1591,0.1598,0.1602,0.1602,0.1603,0.1601,0.1615,0.1611,0.1612,0.1607,0.1607,0.1608,0.1613,0,0.1377,0.1407,0.1424,0.1445,0.1461,0.1476,0.1489,0.1507,0.152,0.1534,0.1548,0.1564,0.1569,0.1577,0.1585,0.16,0.1605,0.1599,0.1618,0.1619,0.1613,0.1613,0.1609,0.1614,0.1614,0.1615,0.1615,0,0.1389,0.1407,0.1431,0.1456,0.1463,0.1474,0.1495,0.1509,0.1528,0.1537,0.155,0.1561,0.1576,0.1578,0.1599,0.1595,0.1603,0.1612,0.1612,0.1615,0.1617,0.1616,0.1616,0.1617,0.1616,0.1616,0.1616,0,0.1381,0.1412,0.143,0.144,0.1469,0.1477,0.1489,0.1508,0.152,0.1536,0.1544,0.1562,0.1572,0.1585,0.16,0.16,0.1619,0.1622,0.1626,0.1626,0.163,0.1629,0.1631,0.1635,0.1635,0.1635,0.1635,0,0.1386,0.14,0.1427,0.1438,0.1453,0.1472,0.1486,0.1499,0.1516,0.1529,0.1543,0.1554,0.1574,0.1587,0.1599,0.1614,0.1618,0.1625,0.1628,0.1624,0.1623,0.163,0.163,0.1635,0.1635,0.1635,0.1635,0,0.138,0.1399,0.142,0.1446,0.1452,0.1463,0.1484,0.1495,0.1508,0.1524,0.1529,0.155,0.1567,0.1583,0.1605,0.1613,0.1628,0.1632,0.1622,0.1623,0.1626,0.1625,0.1633,0.1634,0.1636,0.1636,0.1636,0,0.1383,0.1394,0.1421,0.1431,0.1444,0.146,0.1471,0.1489,0.1501,0.1523,0.1531,0.1548,0.1564,0.1589,0.1606,0.1622,0.1627,0.1628,0.1629,0.1625,0.1627,0.1626,0.1627,0.1628,0.1628,0.1627,0.1627,0,0.1385,0.1393,0.141,0.143,0.1444,0.146,0.1477,0.1484,0.1505,0.1516,0.1534,0.1546,0.1569,0.1586,0.1605,0.1616,0.1625,0.1627,0.1629,0.1625,0.1618,0.1622,0.162,0.1627,0.1627,0.1627,0.1627,0.1627,0.1383,0.1393,0.1414,0.1432,0.1447,0.1462,0.1473,0.1488,0.1503,0.1524,0.1533,0.1551,0.1569,0.1595,0.1606,0.1619,0.1621,0.1624,0.1624,0.1625,0.1624,0.1616,0.1622,0.1622,0.1622,0.1622,0.1622,0,0.1386,0.14,0.1416,0.1439,0.1453,0.1461,0.148,0.149,0.1506,0.1523,0.1537,0.1557,0.1574,0.1591,0.1608,0.1615,0.162,0.1619,0.1619,0.1621,0.1621,0.1618,0.1615,0.1615,0.1615,0.1615,0.1615,0.1615,0.1389,0.1407,0.1417,0.1442,0.1456,0.1474,0.1484,0.1497,0.151,0.1532,0.1546,0.1558,0.1574,0.1593,0.1608,0.1612,0.1618,0.1616,0.1622,0.1621,0.1621,0.1622,0.1619,0.1617,0.1617,0.1621,0.1621,0.1621]},{"header":{"parameterUnit":"m.s-1","parameterCategory":1,"la1":30.2991,"la2":30.254,"lo1":-89.0895,"lo2":-89.0444,"dy":0.0017,"dx":0.0017,"nx":28,"ny":28,"refTime":"2023-11-07T03:00:00:Z","depth":0,"parameterNumber":3,"parameterNumberName":"V-component_of_WINDS"},"data":[0,0,0,0,0,0,0,0,0,0,0,0,0,0,0,0,0,0,0,0,0,0,0,0,0,0,0,0,0,0,0,0,0,0,0,0,0,0,0,0,0,0,0,0,0,0,0,0,0,0,0,0,0,0,0,0,0,0,2.3487,2.3486,0,2.3393,2.3392,2.3391,2.3306,2.3305,2.3304,2.3303,2.3201,2.32,2.3198,0,0,0,0,0,0,0,0,0,0,0,0,0,2.3589,2.3588,2.3487,2.3486,2.3485,2.3393,2.3392,2.3391,2.3306,2.3305,2.3304,2.3302,2.3202,2.32,2.3198,0,0,0,0,0,0,0,0,0,0,0,0,0,2.3525,2.3587,2.3488,2.3432,2.3426,2.3394,2.3392,2.339,2.3306,2.3305,2.3303,2.3302,2.3203,2.32,2.3198,2.3211,0,0,2.319,2.3188,0,0,0,0,0,0,0,0,2.3529,2.3521,2.3441,2.3436,2.3429,2.336,2.3391,2.333,2.3307,2.3352,2.3303,2.3301,2.3255,2.3248,2.3233,2.3207,2.3202,2.3189,2.3188,2.3187,2.3186,0,0,0,0,0,0,0,2.3533,2.3525,2.345,2.344,2.3433,2.341,2.3399,2.3379,2.3313,2.3347,2.3341,2.3331,2.3251,2.3236,2.323,2.3201,2.3189,2.3187,2.3185,2.3184,2.318,2.3181,0,0,0,0,0,0,2.3547,2.3529,2.3453,2.3447,2.3476,2.3409,2.3397,2.3383,2.3313,2.3301,2.3333,2.3328,2.3242,2.3234,2.3227,2.3238,2.3187,2.3184,2.3183,2.3178,2.318,2.3182,0,0,0,0,0,0,2.3549,2.3541,2.3457,2.3486,2.3474,2.3409,2.3394,2.3382,2.3367,2.3302,2.3289,2.333,2.324,2.323,2.3216,2.3234,2.3183,2.318,2.3177,2.3179,2.3181,2.3262,0,0,0,0,0,0,2.3553,2.3542,2.3548,2.3487,2.3473,2.345,2.3395,2.3382,2.3363,2.3356,2.3296,2.3284,2.3238,2.3221,2.3214,2.3229,2.3178,2.3175,2.3178,2.318,2.3257,2.3267,2.3274,0,0,0,0,0,2.3557,2.3574,2.3549,2.354,2.3479,2.3451,2.3442,2.3391,2.3365,2.337,2.3328,2.3286,2.3233,2.322,2.3211,2.3226,2.3174,2.3177,2.318,2.3254,2.3265,2.3274,0,0,0,0,0,0,2.3637,2.3565,2.3536,2.3535,2.35,2.3437,2.3441,2.3404,2.3374,2.3369,2.3304,2.3291,2.3284,2.3253,2.324,2.3235,2.3197,2.3199,2.3256,2.3266,2.3275,2.3282,2.3176,0,0,0,0,0,2.3655,2.3639,2.3576,2.3581,2.3565,2.3506,2.3492,2.3455,2.3416,2.34,2.3357,2.3319,2.3293,2.3278,2.3251,2.3252,2.3237,2.3258,2.3267,2.3274,2.3276,2.3275,2.3283,2.3193,2.3193,2.3193,0,0,2.369,2.3649,2.3643,2.3596,2.3564,2.3549,2.3494,2.348,2.3467,2.3397,2.3382,2.3349,2.3302,2.3296,2.3291,2.327,2.3298,2.3278,2.3285,2.3283,2.3279,2.3288,2.3295,2.3195,2.3195,2.3194,0,0,2.3748,2.3716,2.3716,2.3686,2.364,2.3601,2.3601,2.3543,2.3519,2.3503,2.345,2.3433,2.3391,2.3359,2.3338,2.3384,2.3345,2.3377,2.3422,2.3421,2.3428,2.3434,2.3451,2.3457,2.3379,2.3379,2.338,0,2.3799,2.3775,2.372,2.371,2.369,2.3627,2.3626,2.3599,2.3546,2.3533,2.3511,2.3457,2.342,2.3406,2.3418,2.3402,2.34,2.3384,2.3432,2.3437,2.3442,2.3457,2.3463,2.3384,2.3383,2.3383,2.3382,0,2.3839,2.3823,2.3828,2.378,2.3761,2.3755,2.3699,2.3685,2.365,2.3613,2.3597,2.3551,2.3514,2.3508,2.3472,2.3488,2.3477,2.3444,2.3404,2.3456,2.3469,2.3474,2.339,2.3388,2.3387,2.3386,0,0,2.3945,2.3867,2.387,2.3848,2.3792,2.3778,2.3769,2.3734,2.3724,2.3689,2.3679,2.3644,2.3614,2.359,2.355,2.3549,2.3589,2.3516,2.3514,2.3532,2.3604,2.363,2.3637,2.3562,2.3563,2.3564,2.3608,0,2.3994,2.3976,2.3927,2.3923,2.3907,2.3847,2.3839,2.3803,2.3768,2.3748,2.3708,2.3685,2.3646,2.3631,2.3628,2.3585,2.3603,2.3581,2.3551,2.3551,2.3566,2.3644,2.3671,2.3715,2.3612,2.3613,2.3614,0,2.4049,2.402,2.4015,2.3961,2.3952,2.3946,2.391,2.3892,2.3849,2.3824,2.3797,2.3754,2.3739,2.3703,2.3681,2.3668,2.3652,2.3629,2.363,2.3626,2.3586,2.3642,2.3727,2.3735,2.3621,2.3621,2.362,0,2.4128,2.4087,2.4079,2.4061,2.3997,2.3994,2.3967,2.3923,2.3905,2.3873,2.3861,2.3827,2.3808,2.3782,2.373,2.3708,2.3715,2.3674,2.3692,2.3694,2.3697,2.3698,2.3782,2.3686,2.3686,2.3686,2.3686,0,2.4188,2.4188,2.4114,2.4109,2.4106,2.4049,2.4047,2.4014,2.3975,2.3962,2.3907,2.3895,2.3827,2.3807,2.3765,2.3754,2.3746,2.3724,2.3713,2.3729,2.3732,2.3719,2.3715,2.3688,2.3687,2.3687,2.3687,0,2.4276,2.4226,2.4214,2.4154,2.4139,2.414,2.4088,2.408,2.4042,2.4026,2.4018,2.3957,2.3931,2.3876,2.3834,2.3806,2.3805,2.3785,2.382,2.3814,2.3836,2.3835,2.3915,2.3922,2.3822,2.3823,2.3824,0,2.4318,2.4317,2.4257,2.4246,2.4221,2.4202,2.4184,2.4126,2.411,2.4061,2.4059,2.4029,2.4002,2.3962,2.3913,2.388,2.386,2.389,2.3854,2.3871,2.3861,2.3862,2.3862,2.3898,2.39,2.3901,2.3902,0,2.4399,2.4374,2.4351,2.432,2.4301,2.4272,2.4241,2.4234,2.4169,2.4152,2.4126,2.4105,2.4063,2.4033,2.3993,2.3963,2.3922,2.3913,2.3916,2.3933,2.3954,2.3943,2.3843,2.3912,2.3911,2.391,2.391,2.3909,2.4465,2.4461,2.4419,2.4395,2.4366,2.4338,2.4329,2.4289,2.4267,2.4229,2.4196,2.4172,2.4129,2.4071,2.4044,2.4024,2.4003,2.4007,2.4008,2.401,2.4017,2.3957,2.4016,2.4015,2.4015,2.4015,2.4015,0,2.4543,2.4513,2.4492,2.4451,2.4432,2.4396,2.4359,2.4346,2.4326,2.429,2.4265,2.4234,2.4205,2.4154,2.412,2.4113,2.4093,2.4106,2.4107,2.41,2.4037,2.4039,2.4123,2.4123,2.4123,2.4123,2.4123,2.4123,2.4582,2.4573,2.4544,2.452,2.4489,2.4467,2.445,2.4423,2.4394,2.4363,2.4339,2.4307,2.4264,2.4227,2.4198,2.4183,2.4174,2.4193,2.4173,2.4115,2.4105,2.4095,2.4096,2.4191,2.4192,2.4238,2.4238,2.4239]}]]